Lapse_Rate
4.3 4.2 4.1 4.2 4.3 4.4 4.5 4.6 4.7 4.9 5.4 6.2 7.2 7.5 7.7 7.8 7.8 7.9 7.9 8.0 7.8 7.9 8.0 7.9 8.0 8.2 8.2 8.0 7.9 8.2 8.1 7.9 7.8 7.6 7.8 7.9 8.0 8.2 8.1 8.4 8.0 7.8 7.8 7.8 7.9 7.9 8.4 8.1 8.0 7.9 7.7 7.4 7.5 7.5
4.5 4.3 4.3 4.3 4.3 4.4 4.5 4.6 4.7 4.8 5.2 5.7 6.6 7.3 7.6 7.8 7.9 7.9 7.9 8.1 8.1 7.9 7.9 7.8 8.0 8.2 8.3 8.2 8.1 8.2 7.9 7.7 7.6 7.6 7.7 7.6 7.8 7.9 8.1 8.3 7.8 7.8 7.9 7.7 8.0 8.2 8.1 7.9 7.7 7.8 7.8 7.9 8.0 8.0
4.6 4.4 4.4 4.4 4.4 4.4 4.5 4.5 4.6 4.7 5.0 5.4 6.0 6.8 7.3 7.6 7.9 8.0 8.0 8.0 8.0 8.1 8.0 7.8 7.8 7.9 8.0 8.0 8.0 7.8 7.8 7.8 7.7 7.5 7.5 7.5 7.9 7.8 8.1 7.9 7.9 7.6 7.7 7.7 8.0 8.0 7.9 7.9 7.9 7.9 7.9 7.9 7.8 7.8
4.7 4.5 4.4 4.4 4.4 4.5 4.5 4.5 4.5 4.6 4.7 5.0 5.5 6.1 7.0 7.4 7.7 7.9 8.0 8.0 8.0 8.0 8.0 7.8 7.8 7.9 7.9 7.9 7.8 7.7 7.7 7.6 7.6 7.5 7.4 7.3 7.6 7.6 7.8 7.7 7.9 8.0 8.0 8.1 8.1 8.1 7.9 8.0 7.9 7.9 7.9 7.9 7.9 7.9
4.7 4.7 4.6 4.5 4.5 4.6 4.6 4.6 4.6 4.6 4.7 4.8 5.0 5.5 6.2 7.1 7.4 7.6 7.8 7.9 8.0 7.9 8.0 8.0 7.9 7.9 7.9 7.9 7.7 7.7 7.6 7.7 7.6 7.6 7.7 7.3 7.5 7.6 7.7 7.8 8.1 8.1 8.2 8.1 8.1 7.8 7.9 8.0 8.0 8.0 8.0 8.0 7.9 8.0
4.7 4.7 4.8 4.8 4.8 4.8 4.8 4.9 4.8 4.7 4.8 4.8 4.9 5.1 5.5 6.2 7.1 7.5 7.6 7.8 7.9 7.8 8.0 8.1 8.0 7.9 7.8 7.8 7.8 7.7 7.7 7.7 7.6 7.7 7.4 7.4 7.5 7.5 7.8 8.2 8.1 8.0 7.9 7.9 7.7 8.0 8.1 8.1 8.2 8.1 8.0 7.9 7.9 7.8
4.5 4.6 4.7 4.9 4.9 5.0 5.0 5.0 5.0 4.9 4.9 4.9 4.9 5.0 5.2 5.5 6.2 7.0 7.3 7.6 7.7 7.8 7.9 8.1 8.1 8.2 8.1 8.0 7.9 7.9 7.9 7.8 7.9 7.9 7.8 7.7 7.7 7.9 8.0 8.4 8.4 8.1 8.2 8.2 8.3 8.3 8.1 8.0 8.0 7.9 7.8 7.8 7.7 7.7
4.6 4.7 4.8 5.0 5.1 5.2 5.2 5.2 5.2 5.2 5.2 5.1 5.0 5.0 5.1 5.2 5.6 6.2 7.0 7.5 7.7 7.8 7.5 7.7 8.2 8.4 8.3 8.1 8.0 7.9 8.0 8.0 8.1 8.0 8.0 7.9 7.9 7.7 7.8 8.2 8.2 8.2 8.1 8.0 8.1 8.1 8.1 7.9 7.9 7.8 7.7 7.7 7.6 7.6
4.7 4.8 4.9 5.1 5.2 5.2 5.3 5.4 5.4 5.6 5.4 5.3 5.2 5.1 5.1 5.2 5.3 5.7 6.2 6.9 7.5 7.8 7.8 7.9 8.1 8.1 8.2 8.1 8.1 8.0 7.9 7.8 8.0 7.8 7.7 7.9 8.1 7.8 8.0 7.9 8.0 8.1 8.0 8.0 8.1 8.1 8.0 7.9 7.8 7.8 7.7 7.7 7.6 7.7
4.7 4.8 4.9 5.1 5.2 5.3 5.3 5.4 5.5 5.7 5.8 5.7 5.4 5.2 5.1 5.2 5.2 5.2 5.8 6.2 6.9 7.2 7.4 7.7 7.9 8.0 8.0 8.1 8.1 7.9 7.9 7.8 7.8 7.8 7.9 7.6 7.9 7.9 8.0 8.1 8.2 8.1 8.1 8.1 8.1 8.1 8.1 8.0 7.9 7.8 7.8 7.7 7.7 7.8
4.7 4.7 4.9 5.0 5.2 5.3 5.4 5.4 5.5 5.6 5.8 5.9 5.7 5.3 5.1 5.1 5.1 5.2 5.3 5.7 6.1 6.7 7.2 7.6 7.8 7.9 8.1 7.9 7.9 8.1 8.0 8.0 7.8 7.8 7.6 7.8 8.0 7.9 8.1 8.2 8.2 8.1 8.2 8.1 8.1 8.2 8.1 8.0 7.9 7.9 7.9 7.8 7.6 7.7
4.7 4.7 4.8 4.9 5.1 5.3 5.4 5.5 5.5 5.5 5.7 5.8 5.9 5.8 5.4 5.2 5.1 5.1 5.2 5.4 5.8 6.1 6.5 7.0 7.3 7.7 8.0 8.1 8.0 8.0 7.8 7.9 7.8 7.7 7.5 7.8 7.9 7.9 8.0 8.1 8.1 8.2 8.1 8.0 8.1 8.1 8.0 8.0 8.0 8.0 8.0 7.9 7.6 7.6
4.9 4.7 4.7 4.7 4.8 5.0 5.3 5.4 5.5 5.5 5.5 5.7 6.0 5.8 5.5 5.5 5.3 5.4 5.4 5.4 5.6 5.8 6.1 6.4 6.8 7.3 7.7 7.7 7.8 7.9 7.9 7.8 7.9 7.6 8.0 8.0 8.0 8.0 8.0 8.1 8.0 7.9 7.9 7.9 8.0 8.0 8.0 8.0 8.0 8.0 8.0 7.9 7.7 7.6
5.0 4.9 4.8 4.9 4.8 4.9 4.9 5.1 5.4 5.4 5.4 5.5 5.7 5.7 5.8 5.9 5.9 6.0 5.8 5.3 5.7 5.6 5.6 5.8 6.1 6.5 6.9 7.2 7.5 7.6 7.7 7.8 7.7 7.9 8.1 7.9 8.0 8.1 8.1 7.9 7.8 7.8 7.8 7.7 7.7 7.8 7.9 7.9 7.9 7.8 7.9 7.9 7.7 7.6
5.1 5.0 4.9 4.9 4.9 4.9 4.9 4.9 5.0 5.2 5.3 5.3 5.7 5.9 6.1 6.1 6.2 5.9 5.7 5.6 5.5 5.4 5.4 5.5 5.7 5.9 6.1 6.4 7.1 7.3 7.3 7.5 7.9 8.1 8.0 7.9 7.9 8.0 8.0 7.9 7.8 7.6 7.6 7.5 7.5 7.5 7.6 7.7 7.8 7.8 7.7 7.8 7.7 7.6
5.3 5.2 5.1 4.9 4.8 4.8 4.8 4.9 4.9 4.9 5.1 5.2 5.5 5.9 6.1 6.0 6.1 6.2 5.8 5.5 5.4 5.3 5.3 5.4 5.4 5.6 5.7 5.9 6.1 6.5 6.9 7.5 7.6 7.6 7.9 7.9 7.8 7.8 7.7 7.7 7.8 7.8 7.6 7.4 7.4 7.3 7.3 7.6 7.6 7.6 7.6 7.6 7.7 7.6
5.4 5.4 5.3 5.0 4.8 4.8 4.7 4.7 4.7 4.7 4.9 5.4 5.7 5.8 5.9 6.1 5.8 5.9 6.1 5.8 5.5 5.3 5.1 5.3 5.5 5.9 5.6 5.7 5.9 6.3 6.5 6.9 7.0 7.0 7.1 7.3 7.4 7.5 7.5 7.6 7.6 7.5 7.5 7.4 7.4 7.4 7.5 7.5 7.5 7.5 7.6 7.5 7.6 7.6
5.4 5.6 5.4 5.1 4.9 4.8 4.8 4.6 4.4 4.7 5.1 5.5 5.7 5.6 5.4 5.8 5.8 5.7 5.8 6.0 5.9 5.6 5.3 5.1 5.4 5.6 5.7 6.0 6.3 6.2 6.3 6.3 6.3 6.3 6.4 6.5 6.6 6.7 6.8 7.0 7.2 7.3 7.5 7.5 7.5 7.5 7.5 7.5 7.5 7.6 7.6 7.6 7.6 7.6
5.4 5.6 5.5 5.3 5.0 4.9 4.8 4.9 4.6 4.7 5.3 5.3 5.5 5.5 5.3 5.5 5.6 5.5 5.5 5.6 5.6 5.7 5.6 5.6 5.4 5.6 6.1 6.2 6.4 6.3 6.2 6.1 6.1 6.0 5.9 5.9 5.9 6.0 6.0 6.1 6.2 6.4 6.6 6.9 7.2 7.3 7.4 7.4 7.5 7.5 7.5 7.5 7.7 7.6
5.5 5.5 5.4 5.3 5.1 4.9 4.7 5.0 5.0 4.8 5.2 5.5 5.5 5.5 5.6 5.5 5.5 5.5 5.6 5.5 5.3 5.2 5.3 5.4 6.7 6.8 6.5 6.3 6.1 6.0 5.9 5.9 5.9 5.9 5.8 5.8 5.7 5.6 5.5 5.7 5.9 6.1 6.2 6.4 6.7 7.0 7.2 7.5 7.7 7.9 7.7 7.6 7.5 7.6
5.5 5.4 5.3 5.2 5.1 5.0 4.9 5.0 5.2 5.3 5.2 5.3 5.3 5.3 5.4 5.4 5.2 5.2 5.5 5.3 5.1 5.6 6.0 6.9 6.9 6.6 6.4 6.2 6.1 6.1 6.0 5.9 6.0 6.1 6.1 5.9 5.7 5.6 5.5 5.6 5.7 5.8 5.9 6.0 6.3 6.6 6.7 7.1 7.3 7.6 7.8 7.6 7.5 7.5
5.6 5.4 5.2 5.2 5.1 5.0 5.5 5.6 5.3 5.5 5.1 5.2 5.1 5.2 5.5 5.7 5.5 5.4 5.2 4.8 5.1 6.2 6.6 6.3 6.5 6.3 6.4 6.3 6.2 6.2 6.2 6.1 6.1 6.1 6.1 5.9 5.8 5.7 5.5 5.4 5.4 5.4 5.4 5.4 5.6 5.7 6.1 6.6 6.9 7.2 7.5 7.7 7.7 7.8
5.7 5.6 5.2 4.9 4.6 4.7 5.6 6.0 5.5 5.6 5.0 5.1 5.2 5.1 5.5 5.8 5.8 5.6 5.2 5.7 6.1 6.5 6.2 6.3 6.4 6.4 6.6 6.6 6.5 6.4 6.2 6.2 6.2 6.1 6.0 5.9 5.7 5.6 5.3 5.1 5.0 4.9 4.9 4.9 5.3 5.7 6.3 6.6 7.0 7.3 7.3 7.5 7.6 7.7
5.8 5.6 5.3 5.0 4.6 5.1 5.8 5.9 5.9 5.8 5.5 5.2 4.9 5.1 5.4 5.5 5.5 5.0 5.2 6.1 6.3 6.2 6.2 6.3 6.4 6.5 6.6 6.5 6.5 6.4 6.3 6.2 6.2 6.3 6.1 5.9 5.7 5.4 5.2 4.9 4.6 4.5 4.5 4.9 5.4 6.1 6.5 6.7 7.0 7.3 7.5 7.5 7.5 7.5
5.8 5.5 5.1 4.7 4.8 5.3 5.8 5.9 6.1 5.8 5.7 5.4 4.9 5.2 5.5 5.5 5.0 4.9 5.3 6.0 5.8 5.7 5.9 6.3 6.2 6.3 6.5 6.5 6.5 6.5 6.3 6.2 6.3 6.3 6.2 6.0 5.7 5.4 5.1 4.8 4.6 4.4 4.5 4.9 5.5 6.1 6.5 6.7 7.1 7.4 7.7 7.7 7.5 7.3
5.6 5.4 5.1 4.9 5.6 6.1 5.9 5.9 6.1 6.2 5.8 5.3 5.3 5.6 5.7 5.3 4.9 5.2 5.5 5.6 5.7 6.1 6.4 6.2 6.1 6.2 6.2 6.4 6.4 6.4 6.3 6.3 6.3 6.3 6.2 6.0 5.8 5.4 5.1 4.7 4.5 4.5 4.7 5.0 5.4 6.1 6.6 6.8 7.1 7.5 7.9 8.2 8.2 7.9
5.3 5.4 5.2 5.5 6.1 6.1 6.1 6.0 6.0 5.8 5.6 5.5 5.5 5.5 5.3 5.0 5.2 5.6 5.7 5.7 5.8 5.8 6.0 6.1 6.1 6.1 6.2 6.2 6.3 6.3 6.3 6.3 6.2 6.3 6.2 6.1 5.9 5.5 5.1 4.9 4.7 4.7 4.8 5.1 5.5 6.0 6.6 6.9 7.1 7.5 7.8 8.2 8.4 8.5
5.0 5.3 5.8 6.1 6.1 6.1 5.9 5.8 5.7 5.7 5.6 5.4 5.3 5.5 5.2 5.3 5.6 5.4 5.4 5.4 5.2 5.5 5.8 6.1 6.1 6.0 6.1 6.1 6.0 6.2 6.2 6.2 6.2 6.2 6.2 6.0 5.9 5.6 5.3 5.1 4.9 5.0 5.1 5.3 5.5 5.9 6.4 6.8 7.0 7.3 7.6 7.8 7.9 8.0
4.9 5.4 5.8 5.9 5.9 5.8 5.7 5.8 5.6 5.6 5.4 5.2 5.2 5.1 5.0 5.2 5.2 4.9 4.7 4.7 4.6 4.8 5.1 5.5 5.7 5.8 5.8 5.9 5.9 5.9 6.0 6.0 6.1 6.1 6.1 6.0 5.9 5.6 5.4 5.2 5.1 5.1 5.2 5.4 5.6 5.9 6.2 6.6 6.9 6.9 7.1 7.4 7.5 7.5
5.8 5.8 5.6 5.7 5.7 5.6 5.8 5.4 5.3 5.1 4.9 5.0 5.1 5.2 5.2 5.4 5.2 4.5 4.3 4.5 4.4 4.4 4.5 4.8 5.3 5.6 5.6 5.8 5.8 5.7 5.9 5.9 6.0 6.0 6.0 5.9 5.8 5.6 5.4 5.2 5.2 5.1 5.3 5.4 5.6 5.8 6.0 6.3 6.6 6.7 6.6 6.8 7.1 7.3
5.9 5.8 5.7 5.6 5.6 5.8 5.5 5.2 5.1 5.1 5.2 5.4 5.3 5.1 5.0 4.7 4.7 4.8 4.5 4.5 4.4 4.2 4.4 4.7 4.9 5.0 5.2 5.4 5.6 5.5 5.8 5.8 5.9 5.9 6.0 5.9 5.7 5.6 5.5 5.3 5.2 5.1 5.2 5.4 5.5 5.6 5.9 6.0 6.3 6.5 6.6 6.7 6.7 6.9
6.0 5.9 5.8 5.8 5.8 5.7 5.3 5.2 5.2 5.2 5.3 5.2 5.0 4.7 4.6 4.4 4.4 4.6 4.8 4.5 4.5 4.3 4.3 4.4 4.6 4.9 4.9 4.9 5.3 5.6 5.6 5.7 5.8 5.9 5.8 5.7 5.5 5.5 5.4 5.3 5.1 5.0 5.0 5.2 5.3 5.3 5.6 5.7 5.9 6.3 6.5 6.6 6.7 6.8
6.1 5.9 5.7 5.4 5.4 5.4 5.4 5.0 4.9 5.0 5.1 4.9 4.8 4.7 4.6 4.5 4.6 4.8 5.0 4.7 4.5 4.4 4.5 4.7 4.8 5.1 5.3 5.4 5.5 5.7 5.7 5.8 5.7 5.6 5.6 5.5 5.4 5.3 5.2 5.1 5.0 5.0 5.0 5.1 5.2 5.3 5.3 5.5 5.6 5.8 6.1 6.4 6.6 6.7
Wind_Speed
7 6 5 6 7 9 10 12 13 13 14 14 15 14 13 13 10 6 3 2 2 3 7 6 6 8 5 4 5 2 5 3 3 5 4 6 5 6 8 11 5 5 5 8 10 7 7 1 3 6 5 4 6 7
7 4 4 5 7 9 10 12 13 14 14 15 15 16 13 11 8 4 1 1 3 3 5 4 9 12 13 13 8 2 4 3 2 3 2 3 6 4 9 6 6 4 3 2 3 2 2 0 1 1 4 5 7 11
5 4 3 5 7 9 11 12 14 15 16 16 16 16 16 11 10 3 2 1 1 2 5 7 3 2 9 14 11 4 2 1 2 2 3 3 4 3 3 4 3 6 3 3 2 2 1 2 3 2 4 8 9 10
5 3 2 4 6 8 11 13 15 16 17 17 17 17 16 12 6 3 2 1 2 3 3 1 0 6 5 7 11 14 12 4 5 3 3 3 3 3 2 3 5 3 5 5 5 6 2 2 2 5 9 9 11 12
4 2 1 3 6 8 10 13 15 16 18 18 18 18 18 14 3 3 2 2 2 3 3 5 11 0 5 2 8 8 10 8 5 3 3 3 3 3 0 3 5 3 6 4 5 3 5 7 7 11 11 12 13 14
3 1 2 5 7 9 12 13 15 17 18 19 19 19 17 10 5 3 1 4 3 2 3 3 2 2 3 2 2 4 5 5 3 3 3 2 1 3 3 3 4 3 3 2 3 0 6 7 8 7 12 13 14 15
5 4 5 6 8 10 12 14 16 18 19 20 20 20 14 5 4 2 2 3 2 3 2 4 3 1 3 1 2 2 3 3 3 3 3 4 2 3 4 8 4 4 2 2 1 4 6 3 7 8 10 12 13 14
8 8 7 7 9 10 12 14 16 18 20 21 22 16 6 4 2 3 2 3 6 3 2 3 3 3 3 2 1 1 2 3 3 3 2 4 2 3 4 5 2 1 3 3 2 2 5 5 6 8 9 10 13 13
6 7 5 7 9 10 12 14 17 18 20 21 16 4 3 3 2 1 9 6 2 2 2 1 3 3 4 1 1 2 2 3 2 3 2 3 3 3 7 11 5 3 3 1 2 4 4 5 7 9 11 12 13 14
10 8 9 9 8 11 13 15 16 18 18 13 3 2 1 1 7 4 3 2 2 2 2 2 1 3 4 3 0 3 1 2 2 1 2 3 3 4 7 8 6 3 2 0 3 3 5 7 7 9 11 11 11 12
13 11 10 9 9 11 12 13 15 10 6 2 3 1 3 3 2 1 2 2 3 3 3 2 2 5 1 4 3 1 2 2 3 2 3 2 2 6 7 3 2 2 1 1 2 2 4 6 8 9 10 11 11 12
12 11 11 9 10 11 10 10 10 3 3 5 5 4 2 2 2 3 2 2 4 1 4 2 1 3 1 2 3 1 2 2 3 2 3 2 2 7 5 3 2 1 1 2 3 4 5 6 7 8 9 11 11 11
12 10 10 9 10 10 10 9 10 6 6 2 1 2 2 2 4 4 5 3 3 4 4 2 1 2 2 2 2 2 3 3 3 3 2 1 5 9 4 3 3 2 2 3 4 4 5 6 7 7 8 8 9 9
12 12 10 10 10 11 12 12 9 1 2 2 2 3 4 4 5 4 4 3 3 3 3 2 2 2 0 3 1 3 1 3 3 3 3 3 9 9 4 2 4 4 3 5 4 4 5 5 7 8 4 4 7 7
12 12 11 11 11 11 3 4 3 2 2 3 3 4 6 5 3 2 2 2 3 3 3 2 2 2 2 3 3 3 3 4 4 3 2 3 6 7 4 3 4 5 3 5 6 5 4 5 6 7 4 4 5 5
9 8 8 10 7 4 3 1 3 3 2 3 5 4 4 4 5 4 5 5 4 3 2 2 2 2 5 3 4 6 3 4 1 2 1 3 6 7 7 6 6 6 6 7 6 6 6 5 4 7 5 4 4 3
8 3 4 3 1 4 4 3 3 4 4 4 5 6 6 4 4 4 7 6 5 5 3 2 4 6 1 4 4 4 4 2 2 3 2 2 5 6 6 6 5 5 7 8 8 8 8 7 6 6 8 6 5 4
5 4 8 4 3 2 2 4 3 4 6 6 4 5 5 5 4 4 4 5 6 6 4 4 3 5 5 4 7 4 4 3 3 3 2 2 3 4 5 6 6 6 7 8 9 9 9 8 9 7 7 7 7 6
7 7 6 6 3 2 2 4 3 4 7 5 5 5 4 4 6 7 5 6 7 4 3 3 6 6 10 6 7 5 3 4 4 3 3 4 3 4 6 6 7 7 8 9 9 8 8 10 8 6 5 5 5 4
13 11 11 9 6 2 3 3 3 4 4 2 3 4 3 3 2 5 7 7 7 4 7 5 8 7 6 5 4 4 3 3 4 4 4 3 3 5 5 6 6 8 8 9 8 7 7 8 7 6 5 4 4 4
7 5 9 6 4 4 3 3 4 3 3 3 2 3 3 3 4 5 5 7 7 6 8 9 8 7 5 3 4 4 4 4 4 3 3 3 3 4 5 5 6 7 7 7 8 8 8 7 7 7 6 4 2 3
3 10 3 5 4 4 4 4 3 2 3 3 3 3 4 4 4 4 3 6 5 9 8 8 8 8 7 8 7 6 5 5 3 2 1 1 3 4 5 6 6 7 8 8 8 7 8 9 3 5 4 3 1 3
7 4 2 3 5 6 3 3 5 4 4 2 2 3 3 3 2 3 3 4 4 5 5 6 6 6 6 7 8 7 6 5 4 3 2 1 2 2 3 4 5 6 7 8 7 5 4 8 7 5 4 2 3 3
4 4 5 4 6 4 3 4 3 3 3 3 3 3 3 3 2 3 4 4 4 3 5 7 6 6 6 8 7 6 5 4 3 3 2 2 2 1 2 3 3 4 5 5 6 5 6 5 5 4 3 3 4 4
5 7 5 6 5 5 6 4 5 5 4 5 3 3 2 2 3 4 4 4 3 4 5 6 7 6 6 6 5 5 5 4 4 3 3 1 1 2 1 1 1 4 5 5 5 5 5 5 4 4 4 4 5 6
7 9 9 9 5 6 7 4 7 7 4 4 5 1 1 2 3 5 2 2 2 2 5 7 7 6 5 5 6 5 6 4 4 3 2 2 2 2 2 2 2 1 4 4 4 4 4 4 4 6 5 4 5 5
6 8 5 4 3 3 4 2 3 3 4 6 3 4 3 4 5 3 2 1 2 1 3 5 6 6 5 6 5 5 5 5 2 1 3 2 1 0 2 1 1 2 3 3 3 4 4 4 4 4 4 3 4 5
5 6 8 8 5 4 4 4 5 5 4 4 3 7 4 5 3 1 1 0 1 1 3 4 3 4 5 6 6 7 6 5 5 5 4 3 2 2 2 3 3 1 2 3 3 2 3 3 4 3 2 3 4 5
4 4 6 6 4 4 6 6 5 5 3 5 4 5 4 3 1 2 3 3 3 3 4 5 3 4 6 6 6 5 6 6 8 7 7 4 4 4 3 2 1 1 2 1 3 4 4 5 5 5 6 5 4 4
5 6 5 6 5 7 5 7 4 3 3 4 4 4 3 3 3 3 4 5 5 6 6 6 7 8 8 8 7 5 4 5 5 4 4 5 5 4 4 3 2 1 1 2 3 4 5 5 6 5 5 4 4 4
5 7 4 6 5 4 3 1 2 2 3 4 6 7 10 8 3 4 7 6 6 5 6 7 7 8 9 9 9 9 7 6 6 5 3 2 4 5 4 4 3 2 2 3 3 4 4 5 4 5 6 6 6 5
4 6 4 5 3 1 1 3 2 3 4 5 8 6 3 3 6 3 2 2 6 8 9 8 8 9 10 8 7 5 5 7 9 7 9 5 6 5 5 4 3 3 4 4 4 4 5 5 5 4 4 5 5 5
3 3 3 2 2 2 2 2 2 3 3 3 2 1 3 3 4 2 2 2 2 3 4 5 6 4 10 11 10 7 6 7 10 11 10 8 8 7 5 4 4 4 5 5 5 5 6 6 5 5 5 4 4 5
Wind_Direction
129 107 75 54 41 28 22 17 11 6 2 358 354 346 342 351 1 339 333 216 235 263 282 246 242 266 270 235 268 17 293 188 215 236 250 237 250 228 243 258 272 244 214 206 226 220 254 58 178 252 32 340 6 351
129 107 72 41 26 17 10 3 0 358 356 352 350 346 337 333 359 349 311 4 318 244 299 291 274 266 240 259 288 245 299 312 287 283 253 261 228 230 238 251 184 231 216 281 267 36 122 118 279 41 347 337 334 327
133 108 60 23 13 6 358 354 352 351 348 345 343 343 338 322 330 305 318 277 250 247 254 240 270 340 243 242 243 259 245 335 210 210 300 304 264 294 234 222 245 224 210 261 270 143 176 215 215 154 330 319 318 311
153 130 68 16 3 357 350 346 344 342 341 339 338 337 336 326 313 312 343 269 269 276 286 47 32 316 319 248 228 229 247 217 260 292 298 303 314 319 11 332 291 27 176 234 245 274 271 187 131 329 314 306 309 316
163 148 57 355 344 342 341 338 336 334 334 333 332 331 330 324 246 263 285 221 239 319 311 302 303 196 350 234 214 223 231 250 273 271 237 295 303 292 252 273 255 208 266 242 292 38 309 316 340 325 320 318 318 321
187 223 310 325 332 331 331 332 330 329 329 329 328 326 325 319 185 239 280 184 213 253 282 304 5 281 3 56 157 182 200 217 233 269 275 261 300 277 289 281 276 247 249 311 333 312 299 309 312 327 328 325 314 310
223 249 282 304 317 325 326 327 327 327 327 326 324 322 316 272 221 248 352 19 295 282 261 289 290 100 319 240 165 173 191 218 243 272 257 291 265 234 265 270 290 270 228 194 269 293 268 304 326 334 320 330 323 316
246 258 274 297 309 318 322 326 325 324 325 325 325 320 305 184 220 223 133 338 318 270 282 294 299 264 355 287 209 215 229 217 222 278 254 263 261 242 269 308 319 274 196 207 207 285 309 325 321 344 334 328 328 327
280 256 275 295 308 316 324 324 324 323 321 325 325 305 208 216 207 97 332 297 230 279 292 308 295 328 339 275 287 196 271 254 118 257 259 280 259 242 326 323 285 213 229 190 248 289 298 318 338 340 337 336 333 332
272 267 272 276 299 316 320 323 324 319 318 323 309 262 185 102 324 267 174 211 232 199 235 264 302 286 308 327 343 296 244 307 272 111 294 251 267 338 359 314 290 177 168 208 289 292 328 333 332 336 340 339 332 334
264 267 284 294 296 302 310 323 326 322 300 11 359 356 328 323 238 196 224 237 180 220 193 244 284 316 90 310 336 3 326 293 268 96 280 255 275 8 359 4 90 105 83 330 310 320 320 331 336 335 343 341 340 339
255 258 263 277 286 291 301 310 334 336 340 317 311 291 282 272 219 226 217 214 229 230 171 238 13 285 276 276 276 195 273 254 263 354 263 256 46 2 342 246 191 170 308 305 300 325 340 339 342 340 338 345 340 333
248 253 259 268 269 278 292 296 314 324 300 202 214 238 257 188 219 219 193 202 208 183 185 194 256 312 213 234 259 264 243 239 299 232 248 294 18 354 336 215 222 231 269 293 301 321 326 337 342 344 339 343 337 339
244 250 254 262 274 280 279 278 283 272 270 226 219 244 229 192 233 209 224 188 123 172 178 223 274 269 296 247 266 250 262 264 250 228 219 48 3 341 335 244 255 262 259 279 303 320 351 344 330 329 311 337 338 344
241 251 260 263 269 279 240 190 198 219 225 231 195 232 226 241 248 224 212 210 178 171 184 199 218 243 222 248 221 265 228 238 233 242 102 17 347 345 338 286 271 285 285 269 277 291 294 302 319 306 306 322 342 345
234 262 258 253 198 144 7 213 193 196 226 228 231 237 210 239 224 211 216 220 168 168 169 229 223 233 230 225 214 216 236 240 218 66 36 339 345 342 326 307 286 281 280 281 278 268 266 273 265 297 316 294 306 317
198 220 194 150 92 308 269 230 191 214 230 222 234 234 240 273 255 225 210 209 165 185 223 209 225 220 246 233 227 218 232 301 151 197 227 350 341 334 327 326 289 266 274 280 275 269 274 275 273 281 281 280 295 278
208 177 193 230 282 267 187 206 237 242 242 237 242 237 219 238 237 220 205 180 179 207 206 231 273 222 231 235 230 218 205 183 194 224 229 268 300 330 335 328 325 308 297 295 287 274 262 260 263 266 270 279 283 271
205 199 207 225 241 275 221 204 229 256 239 254 254 239 236 240 230 240 215 196 206 192 200 214 237 240 233 251 265 249 234 215 234 212 242 241 274 314 315 320 311 311 316 305 296 281 267 249 252 268 262 276 286 297
212 204 208 230 227 231 234 214 221 259 256 240 242 237 234 240 255 222 213 190 188 194 214 226 233 237 244 256 253 251 214 184 205 240 253 212 259 297 310 315 320 322 312 313 305 304 285 259 235 218 233 266 279 288
193 200 202 209 202 233 276 239 236 241 279 256 263 241 252 214 228 223 214 190 200 215 227 232 242 244 239 238 210 191 177 194 222 248 290 295 336 313 316 323 328 318 317 317 312 308 299 282 258 203 189 205 234 274
176 170 146 183 207 205 251 229 254 294 252 266 256 234 253 239 233 217 178 196 230 227 227 236 236 239 207 195 187 189 165 162 159 158 192 250 310 326 329 336 333 326 321 318 309 300 299 300 243 169 151 132 236 305
141 165 175 182 188 214 243 182 222 209 232 233 226 242 235 234 224 152 233 226 246 227 223 228 230 208 205 164 161 157 162 173 180 180 168 252 292 308 329 331 331 328 327 332 318 326 28 52 56 65 70 37 333 342
105 177 206 214 213 211 191 207 219 240 218 220 226 250 238 234 173 239 248 241 217 173 196 185 169 147 147 158 169 169 166 178 162 158 183 240 280 331 347 353 353 352 346 359 21 39 48 55 54 55 44 22 10 357
175 203 215 200 206 203 205 205 206 212 236 206 227 242 230 221 249 248 244 252 209 215 196 180 181 183 177 171 161 153 159 180 191 210 183 229 254 262 232 217 21 10 356 9 24 30 32 25 26 20 20 16 6 8
208 194 200 197 196 206 194 201 204 212 191 204 227 231 230 242 247 257 255 315 309 237 196 184 177 166 163 165 163 170 175 173 179 222 188 209 222 252 266 264 290 69 11 5 5 11 22 19 17 1 355 0 2 353
210 200 191 210 204 187 203 192 165 201 196 210 202 183 192 232 237 250 283 244 287 338 198 176 174 174 162 150 133 134 146 157 163 105 118 153 131 239 255 238 117 42 352 2 10 8 2 358 353 347 340 12 22 49
215 187 185 181 195 201 190 190 198 211 217 190 183 195 211 216 241 189 246 133 242 122 138 143 146 141 140 150 142 140 131 127 124 123 119 127 125 127 109 96 75 30 346 356 349 7 9 2 343 334 357 73 66 45
192 180 160 178 173 194 211 210 218 212 204 189 200 210 224 218 231 205 188 166 157 162 153 156 137 123 118 127 140 151 154 165 169 178 198 195 185 187 173 156 133 47 9 2 84 21 32 47 49 69 91 86 66 50
185 174 187 179 195 211 217 201 223 207 206 235 258 266 250 240 222 179 172 163 190 204 200 192 170 176 174 169 166 171 188 193 200 203 204 208 202 151 162 163 156 99 60 88 66 85 113 106 100 82 69 54 37 38
154 180 196 197 223 228 231 244 251 253 249 248 243 253 261 279 255 213 216 216 216 206 187 187 183 191 183 181 179 178 192 198 203 196 172 133 148 155 150 142 132 131 119 102 90 87 99 93 86 80 68 59 42 28
176 195 182 200 223 165 225 226 243 244 253 248 254 250 263 245 258 235 48 276 236 230 228 217 196 195 194 187 175 165 168 161 169 174 166 161 156 144 141 135 139 136 118 108 101 94 85 83 77 73 74 60 42 26
183 179 193 221 221 228 178 230 238 273 239 252 252 264 264 265 263 38 80 25 309 301 265 239 226 196 182 175 167 152 139 143 145 146 144 138 136 140 141 145 141 132 128 119 111 109 100 96 86 75 62 47 34 19